Spokane Fairchild, WA
on Sunday, November 11, 2012

Sunday
Previous Day Next Day
Daily Summary
 ActualAverage (KGEG)Record (KGEG)
Temperature
Mean Temperature °F 37°F  
Max Temperature 32°F 44°F 62°F (1990)
Min Temperature 19°F 31°F -2°F (2000)
Degree Days
Heating Degree Days 40 28  
Month to date heating degree days 283  
Since 1 July heating degree days 1071  
Cooling Degree Days 0 0  
Month to date cooling degree days 0  
Year to date cooling degree days 450  
Moisture
Dew Point 27°F   
Average Humidity 100    
Maximum Humidity 100    
Minimum Humidity 100    
Precipitation
Precipitation 0.00 in 0.07 in 0.89 in (1968)
Month to date precipitation 0.76  
Year to date precipitation 12.72  
Snow
Snow 0.00 in 0.10 in 3.60 in (1992)
Month to date snowfall 1.2  
Since 1 July snowfall 1.3  
Since 1 September snowfall 1.3  
Snow Depth in   
Wind
Wind Speed 5 mph   
Max Wind Speed 8 mph   
Max Gust Speed mph   
Visibility 9 miles   
Events Fog , Snow   

Key: T is trace of precipitation, MM is missing value
Source: NWS Daily Summary
Time(PST)TemperatureDew PointHumidity Pressure Visibility Wind DirectionWind SpeedGust SpeedPrecipitationEvents Conditions
12:00 AM 19.4°F 19.4°F 100% 30.14 in 10.0 miles SW 8.1 mph - N/A Snow Light Snow
12:27 AM 21.2°F 21.2°F 100% 30.14 in 10.0 miles SW 5.8 mph - N/A   Clear
12:32 AM 21.2°F 21.2°F 100% 30.15 in 10.0 miles SW 6.9 mph - N/A Snow Light Snow
2:55 AM 19.4°F 19.4°F 100% 30.17 in 10.0 miles South 6.9 mph - N/A   Partly Cloudy
3:04 AM 19.4°F 19.4°F 100% 30.17 in 10.0 miles SSW 3.5 mph - N/A   Mostly Cloudy
3:20 AM 23.0°F 23.0°F 100% 30.17 in 10.0 miles South 1.2 mph - N/A Snow Light Snow
4:09 AM 23.0°F 23.0°F 100% 30.18 in 0.5 miles South 6.9 mph - N/A Fog , Snow Light Freezing Fog
4:39 AM 23.0°F 23.0°F 100% 30.19 in 0.5 miles South 5.8 mph - N/A Fog , Snow Light Freezing Fog
4:49 AM 23.0°F 23.0°F 100% 30.19 in 0.2 miles SSW 6.9 mph - N/A Fog , Snow Light Freezing Fog
4:58 AM 23.5°F 23.5°F 100% 30.29 in 0.2 miles SSW 8.1 mph - 0.00 in Fog , Snow Light Freezing Fog
6:58 AM 25.5°F 25.5°F 100% 30.31 in 10.0 miles SSE 2.3 mph - 0.00 in   Overcast
7:23 AM 24.8°F 24.8°F 100% 30.22 in 10.0 miles SE 3.5 mph - N/A   Overcast
7:31 AM 24.8°F 24.8°F 100% 30.22 in 10.0 miles SSE 3.5 mph - N/A   Overcast
7:41 AM 24.8°F 24.8°F 100% 30.22 in 10.0 miles SSE 4.6 mph - N/A   Overcast
7:56 AM 24.8°F 24.8°F 100% 30.22 in 10.0 miles SSE 4.6 mph - N/A   Overcast
7:58 AM 25.5°F 25.5°F 100% 30.32 in 10.0 miles SSE 3.5 mph - 0.00 in   Overcast
8:02 AM 24.8°F 24.8°F 100% 30.22 in 10.0 miles SSE 5.8 mph - N/A   Overcast
8:06 AM 24.8°F 24.8°F 100% 30.22 in 10.0 miles SSE 4.6 mph - N/A   Overcast
8:11 AM 24.8°F 24.8°F 100% 30.22 in 10.0 miles South 4.6 mph - N/A   Overcast
8:17 AM 24.8°F 24.8°F 100% 30.22 in 10.0 miles SSE 4.6 mph - N/A   Overcast
8:23 AM 24.8°F 24.8°F 100% 30.23 in 10.0 miles South 4.6 mph - N/A   Overcast
8:28 AM 24.8°F 24.8°F 100% 30.23 in 10.0 miles South 4.6 mph - N/A   Overcast
8:31 AM 26.6°F 26.6°F 100% 30.23 in 10.0 miles South 3.5 mph - N/A   Overcast
8:41 AM 26.6°F 26.6°F 100% 30.23 in 10.0 miles SSE 3.5 mph - N/A   Overcast
8:46 AM 26.6°F 26.6°F 100% 30.23 in 10.0 miles South 3.5 mph - N/A   Overcast
8:48 AM 26.6°F 26.6°F 100% 30.23 in 10.0 miles South 3.5 mph - N/A   Overcast
8:58 AM 25.9°F 25.9°F 100% 30.35 in 10.0 miles South 4.6 mph - 0.00 in   Overcast
9:00 AM 26.6°F 26.6°F 100% 30.24 in 10.0 miles South 4.6 mph - N/A   Overcast
9:11 AM 26.6°F 26.6°F 100% 30.24 in 10.0 miles South 3.5 mph - N/A   Overcast
9:20 AM 26.6°F 26.6°F 100% 30.25 in 10.0 miles South 3.5 mph - N/A   Overcast
9:24 AM 26.6°F 26.6°F 100% 30.25 in 10.0 miles South 3.5 mph - N/A   Overcast
9:33 AM 26.6°F 26.6°F 100% 30.25 in 10.0 miles SSE 4.6 mph - N/A   Overcast
9:58 AM 27.0°F 27.0°F 100% 30.35 in 10.0 miles SE 4.6 mph - 0.00 in   Overcast
10:08 AM 26.6°F 26.6°F 100% 30.25 in 10.0 miles SE 4.6 mph - N/A   Overcast
10:11 AM 26.6°F 26.6°F 100% 30.25 in 10.0 miles ESE 4.6 mph - N/A   Overcast
10:39 AM 28.4°F 28.4°F 100% 30.26 in 10.0 miles SE 4.6 mph - N/A   Overcast
10:40 AM 28.4°F 28.4°F 100% 30.26 in 10.0 miles SE 4.6 mph - N/A   Overcast
10:44 AM 28.4°F 28.4°F 100% 30.26 in 10.0 miles SSE 4.6 mph - N/A   Overcast
10:58 AM 28.4°F 28.4°F 100% 30.36 in 10.0 miles SSE 5.8 mph - 0.00 in   Overcast
11:15 AM 28.4°F 28.4°F 100% 30.25 in 10.0 miles SSE 5.8 mph - N/A   Overcast
11:25 AM 28.4°F 28.4°F 100% 30.25 in 10.0 miles SSE 5.8 mph - N/A   Overcast
11:50 AM 30.2°F 30.2°F 100% 30.25 in 10.0 miles SSE 5.8 mph - N/A   Overcast
11:58 AM 29.7°F 29.7°F 100% 30.35 in 10.0 miles SE 4.6 mph - 0.00 in   Overcast
11:59 AM 30.2°F 30.2°F 100% 30.25 in 10.0 miles SE 5.8 mph - N/A   Overcast
12:24 PM 30.2°F 30.2°F 100% 30.25 in 10.0 miles SE 4.6 mph - N/A   Overcast
12:58 PM 30.4°F 30.4°F 100% 30.35 in 10.0 miles SE 6.9 mph - 0.00 in   Overcast
1:23 PM 32.0°F 32.0°F 100% 30.25 in 10.0 miles ESE 4.6 mph - N/A   Overcast
1:58 PM 32.0°F 32.0°F 100% 30.36 in 10.0 miles Calm Calm - N/A   Overcast
2:08 PM 32.0°F 32.0°F 100% 30.26 in 10.0 miles Calm Calm - N/A   Overcast
2:43 PM 32.0°F 32.0°F 100% 30.26 in 10.0 miles ESE 3.5 mph - N/A   Overcast
2:48 PM 32.0°F 32.0°F 100% 30.26 in 10.0 miles ESE 3.5 mph - N/A   Overcast
2:58 PM 31.3°F 31.3°F 100% 30.27 in 10.0 miles Variable 2.3 mph - N/A   Overcast
3:03 PM 32.0°F 32.0°F 100% 30.27 in 10.0 miles Variable 2.3 mph - N/A   Overcast
3:58 PM 31.3°F 31.3°F 100% 30.37 in 10.0 miles ENE 5.8 mph - N/A   Overcast
4:13 PM 32.0°F 32.0°F 100% 30.27 in 10.0 miles ENE 5.8 mph - N/A   Overcast
4:38 PM 30.2°F 30.2°F 100% 30.27 in 10.0 miles NE 6.9 mph - N/A   Overcast
4:58 PM 30.2°F 30.2°F 100% 30.37 in 10.0 miles NE 6.9 mph - N/A   Overcast
5:08 PM 30.2°F 30.2°F 100% 30.27 in 10.0 miles ENE 5.8 mph - N/A   Overcast
5:53 PM 28.4°F 28.4°F 100% 30.27 in 10.0 miles NE 5.8 mph - N/A   Overcast
5:58 PM 29.3°F 29.3°F 100% 30.36 in 10.0 miles NE 6.9 mph - N/A   Overcast
6:58 PM 29.8°F 29.8°F 100% 30.35 in 10.0 miles NE 5.8 mph - N/A   Overcast
7:58 PM 30.0°F 30.0°F 100% 30.35 in 10.0 miles ENE 3.5 mph - N/A   Overcast
8:58 PM 30.0°F 30.0°F 100% 30.35 in 10.0 miles NE 6.9 mph - N/A   Overcast
9:58 PM 29.8°F 29.8°F 100% 30.34 in 10.0 miles NE 5.8 mph - N/A   Overcast
10:58 PM 30.0°F 30.0°F 100% 30.34 in 10.0 miles NE 4.6 mph - N/A   Overcast
11:32 PM 30.2°F 30.2°F 100% 30.25 in 10.0 miles NE 4.6 mph - N/A   Overcast
11:47 PM 32.0°F 32.0°F 100% 30.25 in 10.0 miles NE 4.6 mph - N/A   Overcast
11:52 PM 32.0°F 32.0°F 100% 30.25 in 10.0 miles NE 4.6 mph - N/A Snow Light Snow
11:58 PM 30.4°F 30.4°F 100% 30.33 in 10.0 miles NE 4.6 mph - 0.00 in Snow Light Snow
Moon Phase
Nov. 11 Nov. 13 Nov. 20 Nov. 28 Dec. 06
Sunrise:06:50 AM (PST) Moon Rise:04:01 AM (PST)11/11
Sunset:04:18 PM (PST) Moon Set:02:51 PM (PST)11/11

Copyright © 2014 The Weather Underground, Inc.